SCP
0 0 0 0 0 0 0 0 0 0 0 0 0 0 0 0 0 0 0 0 0 0 0 0 0 0 0 0 0 0 0 0
0 0 0 0 0 0 0 0 0 0 0 0 0 0 0 0 0 0 0 0 0 0 0 0 0 0 0 0 0 0 0 0
0 0 0 0 0 0 0 0 0 0 0 0 0 0 0 0 0 0 0 0 0 0 0 0 0 0 0 0 0 0 0 0
0 0 0 0 0 0 0 0 0 0 0 0 0 0 0 0 0 0 0 0 0 0 0 0 0 0 0 0 0 0 0 0
0 0 0 0 0 0 0 0 0 0 0 0 0 0 0 0 0 0 0 0 0 0 0 0 0 0 0 0 0 0 0 0
0 0 0 0 0 0 0 0 0 0 0 0 0 0 0 0 -0 -0 -0 -0 0 0 0 0 0 0 0 0 0 0 0 0
0 0 0 0 0 0 0 0 0 0 0 0 0 0 0 -0 -0 -0 -0 -0 -0 -0 0 0 0 0 0 0 0 0 0 0
0 0 0 0 0 0 0 0 0 0 0 0 0 0 0 0 0 -0 -0 -0 -0 -0 -0 -0 -0 0 0 0 0 0 0 0
0 0 0 0 0 0 0 0 0 0 0 0 0 0 0 0 0 0 0 0 0 0 -0 0 0 0 0 0 0 0 0 0
0 0 0 0 0 0 0 0 0 0 0 0 0 0 0 0 0 0 0 -0 -0 -0 -0 0 0 0 0 0 0 0 0 0
0 0 0 0 0 0 0 0 0 0 0 0 0 0 0 0 0 0 0 -0 -0 -0 -0 -0 -0 0 0 0 0 0 0 0
0 0 0 0 0 0 0 0 0 0 0 0 0 0 0 0 0 0 -0 -0 -0 -0 -0 0 -0 -0 0 0 0 0 0 0
0 0 0 0 0 0 0 0 0 0 0 0 0 0 0 0 0 0 -0 -0 -0 -0 -0 -0 0 0 -0 0 0 0 0 0
0 0 0 0 0 0 0 0 0 0 0 0 0 0 0 0 0 0 -0 -0 -0 -0 -0 -0 -0 0 -0 -0 -0 0 0 0
0 0 0 0 0 0 0 0 0 0 0 0 0 0 0 0 0 0 0 -0 -0 -0 -0 -0 -0 -0 0 -0 0 0 0 0
0 0 0 0 0 0 0 0 0 0 0 0 0 0 0 0 0 0 0 0 -0 -0 -0 -0 -0 -0 0 0 0 0 0 0
0 0 0 0 0 0 0 0 0 0 0 0 0 0 0 0 0 0 0 0 0 -0 -0 -0 -0 -0 -0 0 0 0 0 0
0 0 0 0 0 0 0 0 0 0 0 0 0 0 0 0 0 0 0 0 0 0 -0 -0 -0 -0 -0 -0 0 0 0 0
0 0 0 0 0 0 0 0 0 0 0 0 0 0 0 0 0 0 0 0 0 0 0 -0 -0 -0 -0 -0 -0 0 0 0
0 0 0 0 0 0 0 0 0 0 0 0 0 0 0 0 0 0 0 0 0 0 0 -0 -0 -0 -0 -0 -0 -0 0 0
Wind_Speed_500mb
24 22 18 15 13 9 7 5 7 9 9 10 12 14 16 18 22 25 29 30 34 35 35 37 42 44 42 41 39 39 40 39
22 20 18 15 11 11 11 10 9 8 10 12 14 18 20 22 25 28 30 32 35 38 40 41 40 42 48 50 49 48 47 46
19 15 12 10 10 12 13 13 13 13 14 15 17 22 25 28 32 34 38 39 42 42 44 46 46 46 46 49 50 52 55 53
12 9 10 12 13 13 13 14 14 15 16 19 21 25 30 33 36 39 42 44 47 48 52 54 55 56 53 52 54 55 55 57
14 14 16 17 16 15 15 16 17 18 21 25 29 33 36 38 39 43 44 45 46 49 50 55 58 61 61 60 60 59 59 60
9 9 10 12 14 16 18 19 21 24 29 33 36 40 43 46 49 48 49 52 51 50 51 54 57 60 64 66 65 66 66 66
9 7 10 13 15 18 20 21 24 28 32 36 39 43 47 49 52 54 56 57 59 60 59 57 56 59 62 66 69 71 70 71
4 6 10 13 16 18 20 23 26 30 33 36 39 43 45 48 49 52 54 58 60 62 65 68 68 63 61 65 68 70 72 74
6 9 10 12 14 17 20 23 26 29 31 34 36 38 40 44 47 49 51 54 56 58 61 63 64 65 67 66 66 69 70 70
9 10 11 14 16 18 19 21 23 25 26 26 28 30 34 38 42 45 49 53 58 60 60 59 61 62 63 62 63 63 64 66
7 7 8 9 10 11 12 13 15 16 18 20 25 30 35 40 43 46 49 52 54 55 55 58 59 59 61 62 61 56 51 56
7 7 8 7 7 7 9 10 12 15 18 23 28 32 37 41 45 49 52 55 57 59 57 55 52 56 61 60 51 41 35 24
5 4 5 4 4 5 6 7 11 15 20 24 27 30 34 39 44 48 55 59 60 59 60 62 57 55 56 62 35 18 7 13
2 3 2 1 2 2 3 8 12 17 20 21 24 27 31 35 39 44 52 59 61 60 58 59 54 51 51 43 27 18 10 25
6 5 4 3 3 0 5 10 15 17 19 21 23 26 28 30 33 39 46 52 59 60 57 54 53 44 35 20 17 14 63 2
8 10 6 4 2 3 6 8 12 15 19 21 22 25 27 28 30 34 40 45 51 57 58 54 50 47 36 25 21 25 18 25
15 10 8 4 1 2 6 11 14 17 19 21 22 22 24 26 29 31 33 36 44 50 54 55 49 44 41 39 31 25 8 21
11 5 3 1 1 2 5 7 11 14 16 18 21 24 25 27 29 32 33 33 37 42 46 49 49 44 41 36 27 20 30 25
11 5 4 2 2 4 4 6 10 13 17 19 21 23 26 29 31 30 31 33 34 36 40 46 51 49 45 39 27 21 20 22
15 10 6 4 3 3 3 8 12 17 18 20 20 21 25 29 30 32 34 34 37 38 39 41 44 46 48 44 37 27 20 16
Wind_Direction_500mb
175 177 181 187 195 200 214 249 276 285 295 300 299 295 291 286 283 281 281 281 280 279 277 274 271 268 263 260 257 255 256 256
182 186 189 194 207 228 242 239 251 271 285 290 293 294 294 296 293 291 289 285 280 279 279 278 274 273 269 266 261 257 256 257
183 191 200 218 242 253 258 268 277 280 281 286 286 292 295 294 293 291 288 286 283 281 278 276 274 271 272 274 272 265 260 256
183 203 232 250 259 266 270 277 280 286 291 294 296 297 299 300 298 295 292 288 285 280 277 276 275 274 271 267 267 267 265 262
199 221 237 248 256 263 269 278 288 295 299 303 305 306 304 304 303 300 297 291 285 282 279 276 274 275 274 271 267 265 266 263
210 237 259 272 279 283 289 296 301 304 306 309 308 308 309 309 309 309 306 303 298 291 285 282 280 276 273 272 271 268 264 263
214 255 275 277 279 284 286 290 297 303 306 307 309 309 311 313 313 312 312 309 305 301 297 289 282 278 276 273 271 270 268 265
222 285 292 287 288 290 295 300 305 310 314 315 316 318 318 318 318 317 316 313 310 306 302 299 295 289 280 275 272 270 269 266
328 313 300 293 292 295 303 312 318 321 323 327 332 333 331 330 328 327 323 318 314 310 304 300 295 291 289 284 279 275 271 268
285 281 288 295 298 303 309 316 323 331 338 342 345 347 346 343 340 337 334 329 324 318 313 308 304 300 294 288 286 281 279 273
265 284 296 291 293 305 317 331 340 349 2 6 5 3 1 359 357 354 348 343 337 331 325 319 316 311 306 300 296 294 285 277
258 295 307 313 321 333 347 359 13 23 19 17 15 13 13 10 8 6 2 358 352 347 342 335 332 323 315 312 314 309 294 290
249 311 311 332 337 344 6 29 35 20 16 14 17 18 16 17 17 16 15 11 4 354 348 346 350 340 330 322 332 330 282 19
232 254 260 349 34 37 44 32 14 8 9 5 8 11 13 15 17 19 17 15 12 4 356 351 357 352 345 347 345 334 284 317
224 222 190 179 166 110 9 3 3 358 353 354 356 357 359 2 6 10 13 14 16 12 5 358 354 355 358 10 343 324 322 68
208 203 179 189 213 17 359 351 344 347 354 357 353 351 352 354 357 4 11 16 21 19 13 7 2 355 353 331 308 299 315 315
203 176 178 171 95 330 334 346 353 5 3 357 353 355 357 1 4 5 11 18 21 22 18 17 12 3 355 346 335 321 338 308
192 174 127 130 234 318 339 358 14 14 2 1 0 3 5 9 12 10 12 15 16 18 18 18 15 10 360 1 356 347 311 314
206 200 247 242 320 341 359 12 14 13 13 9 9 9 12 15 16 16 18 19 18 19 20 20 22 17 15 7 353 344 327 318
211 228 243 230 277 263 360 13 15 11 10 12 9 13 21 24 24 25 24 23 23 23 24 24 25 27 30 25 13 358 346 338
Wind_Speed_850mb
24 22 18 15 13 9 7 5 7 9 9 10 12 14 16 18 22 25 29 30 34 35 35 37 42 44 42 41 39 39 40 39
22 20 18 15 11 11 11 10 9 8 10 12 14 18 20 22 25 28 30 32 35 38 40 41 40 42 48 50 49 48 47 46
19 15 12 10 10 12 13 13 13 13 14 15 17 22 25 28 32 34 38 39 42 42 44 46 46 46 46 49 50 52 55 53
12 9 10 12 13 13 13 14 14 15 16 19 21 25 30 33 36 39 42 44 47 48 52 54 55 56 53 52 54 55 55 57
14 14 16 17 16 15 15 16 17 18 21 25 29 33 36 38 39 43 44 45 46 49 50 55 58 61 61 60 60 59 59 60
9 9 10 12 14 16 18 19 21 24 29 33 36 40 43 46 49 48 49 52 51 50 51 54 57 60 64 66 65 66 66 66
9 7 10 13 15 18 20 21 24 28 32 36 39 43 47 49 52 54 56 57 59 60 59 57 56 59 62 66 69 71 70 71
4 6 10 13 16 18 20 23 26 30 33 36 39 43 45 48 49 52 54 58 60 62 65 68 68 63 61 65 68 70 72 74
6 9 10 12 14 17 20 23 26 29 31 34 36 38 40 44 47 49 51 54 56 58 61 63 64 65 67 66 66 69 70 70
9 10 11 14 16 18 19 21 23 25 26 26 28 30 34 38 42 45 49 53 58 60 60 59 61 62 63 62 63 63 64 66
7 7 8 9 10 11 12 13 15 16 18 20 25 30 35 40 43 46 49 52 54 55 55 58 59 59 61 62 61 56 51 56
7 7 8 7 7 7 9 10 12 15 18 23 28 32 37 41 45 49 52 55 57 59 57 55 52 56 61 60 51 41 35 24
5 4 5 4 4 5 6 7 11 15 20 24 27 30 34 39 44 48 55 59 60 59 60 62 57 55 56 62 35 18 7 13
2 3 2 1 2 2 3 8 12 17 20 21 24 27 31 35 39 44 52 59 61 60 58 59 54 51 51 43 27 18 10 25
6 5 4 3 3 0 5 10 15 17 19 21 23 26 28 30 33 39 46 52 59 60 57 54 53 44 35 20 17 14 63 2
8 10 6 4 2 3 6 8 12 15 19 21 22 25 27 28 30 34 40 45 51 57 58 54 50 47 36 25 21 25 18 25
15 10 8 4 1 2 6 11 14 17 19 21 22 22 24 26 29 31 33 36 44 50 54 55 49 44 41 39 31 25 8 21
11 5 3 1 1 2 5 7 11 14 16 18 21 24 25 27 29 32 33 33 37 42 46 49 49 44 41 36 27 20 30 25
11 5 4 2 2 4 4 6 10 13 17 19 21 23 26 29 31 30 31 33 34 36 40 46 51 49 45 39 27 21 20 22
15 10 6 4 3 3 3 8 12 17 18 20 20 21 25 29 30 32 34 34 37 38 39 41 44 46 48 44 37 27 20 16
Wind_Direction_850mb
175 177 181 187 195 200 214 249 276 285 295 300 299 295 291 286 283 281 281 281 280 279 277 274 271 268 263 260 257 255 256 256
182 186 189 194 207 228 242 239 251 271 285 290 293 294 294 296 293 291 289 285 280 279 279 278 274 273 269 266 261 257 256 257
183 191 200 218 242 253 258 268 277 280 281 286 286 292 295 294 293 291 288 286 283 281 278 276 274 271 272 274 272 265 260 256
183 203 232 250 259 266 270 277 280 286 291 294 296 297 299 300 298 295 292 288 285 280 277 276 275 274 271 267 267 267 265 262
199 221 237 248 256 263 269 278 288 295 299 303 305 306 304 304 303 300 297 291 285 282 279 276 274 275 274 271 267 265 266 263
210 237 259 272 279 283 289 296 301 304 306 309 308 308 309 309 309 309 306 303 298 291 285 282 280 276 273 272 271 268 264 263
214 255 275 277 279 284 286 290 297 303 306 307 309 309 311 313 313 312 312 309 305 301 297 289 282 278 276 273 271 270 268 265
222 285 292 287 288 290 295 300 305 310 314 315 316 318 318 318 318 317 316 313 310 306 302 299 295 289 280 275 272 270 269 266
328 313 300 293 292 295 303 312 318 321 323 327 332 333 331 330 328 327 323 318 314 310 304 300 295 291 289 284 279 275 271 268
285 281 288 295 298 303 309 316 323 331 338 342 345 347 346 343 340 337 334 329 324 318 313 308 304 300 294 288 286 281 279 273
265 284 296 291 293 305 317 331 340 349 2 6 5 3 1 359 357 354 348 343 337 331 325 319 316 311 306 300 296 294 285 277
258 295 307 313 321 333 347 359 13 23 19 17 15 13 13 10 8 6 2 358 352 347 342 335 332 323 315 312 314 309 294 290
249 311 311 332 337 344 6 29 35 20 16 14 17 18 16 17 17 16 15 11 4 354 348 346 350 340 330 322 332 330 282 19
232 254 260 349 34 37 44 32 14 8 9 5 8 11 13 15 17 19 17 15 12 4 356 351 357 352 345 347 345 334 284 317
224 222 190 179 166 110 9 3 3 358 353 354 356 357 359 2 6 10 13 14 16 12 5 358 354 355 358 10 343 324 322 68
208 203 179 189 213 17 359 351 344 347 354 357 353 351 352 354 357 4 11 16 21 19 13 7 2 355 353 331 308 299 315 315
203 176 178 171 95 330 334 346 353 5 3 357 353 355 357 1 4 5 11 18 21 22 18 17 12 3 355 346 335 321 338 308
192 174 127 130 234 318 339 358 14 14 2 1 0 3 5 9 12 10 12 15 16 18 18 18 15 10 360 1 356 347 311 314
206 200 247 242 320 341 359 12 14 13 13 9 9 9 12 15 16 16 18 19 18 19 20 20 22 17 15 7 353 344 327 318
211 228 243 230 277 263 360 13 15 11 10 12 9 13 21 24 24 25 24 23 23 23 24 24 25 27 30 25 13 358 346 338